{"data":{"norad_id":66325,"epoch":"2026-09-20T11:58:21.582624Z","epoch_age_seconds":96791,"freshness":"FRESH","line1":"1 66325U 25253G   26263.49886091  .00014387  00000+0  53117-3 0  9995","line2":"2 66325  42.9975 192.7061 0000888 235.8282 124.2485 15.27588798 50034","mean_motion":15.27588798,"eccentricity":8.88e-5,"inclination_deg":42.9975,"raan_deg":192.7061,"arg_perigee_deg":235.8282,"mean_anomaly_deg":124.2485,"bstar":0.00053117,"rev_number":5003,"period_min":94.266205793426,"perigee_km":482.41348080307,"apogee_km":483.63202277499,"semimajor_km":6861.159751789,"source":"CELESTRAK","updated_at":"2026-09-21T09:00:35.873981Z"}}